User: anonymous   Login
Location: Unspecified
(0.0000°N, 0.0000°E)
Time: 03:50:35
(UTC+02:00)
Language:

ARIANE 44L R/B - Orbit

View from above orbital plane
View from above orbital plane
View from above satellite
View from above satellite

Ground track
Ground track

The orbit data is extracted from the following two-line orbital elements,

1 26901U 01039B   16243.45031155 +.00008837 +00000-0 +18394-2 0  9994
2 26901 007.2316 278.0283 6909427 055.4106 351.6095 02.76543994135521
Epoch (UTC): 30 August 2016 10:48:26
Eccentricity: 0.6909427
inclination: 7.2316°
perigee height: 248 km
apogee height: 29875 km
right ascension of ascending node: 278.0283°
argument of perigee: 55.4106°
revolutions per day: 2.76543994
mean anomaly at epoch: 351.6095°
orbit number at epoch: 13552

The dashed part of the orbit path shows where the satellite is in the earth's shadow,  

DLR